Location: London
(42.9830°N, 81.2500°W)
Time: 23:05:26
(UTC-05:00)

Amateur Radio Satellites - All Passes

Search period start: 07 February 2016 22:35
Search period end: 08 February 2016 22:35
Location: London, 42.9830°N, 81.2500°W

Satellite Date Start Highest point End Downlink Frequencies (MHz)
Time Altitude Azimuth
NANOSAT C BR1 07 Feb 22:40:47 22:42:17 12° 90° (E) 22:43:47 145.865
DUCHIFAT 1 07 Feb 22:43:15 22:44:49 12° 90° (E) 22:46:22 145.980
QB50P1 07 Feb 22:46:42 22:49:01 14° 91° (E) 22:51:19 145.935-145.965
ISS 07 Feb 22:55:09 22:58:24 70° 32° (NNE) 23:01:37 145.825
UNISAT 6 07 Feb 22:55:21 22:59:40 76° 103° (ESE) 23:04:04 437.425
VELOX 1 07 Feb 22:59:22 23:03:51 83° 74° (ENE) 23:08:20 145.980
AIST 1 07 Feb 23:05:01 23:08:52 31° 270° (W) 23:12:39
AISAT 07 Feb 23:15:40 23:20:07 64° 259° (WSW) 23:24:34 437.250
ESTCUBE 1 07 Feb 23:28:10 23:32:29 45° 261° (W) 23:36:52 437.505/2401.250
50 SAT 07 Feb 23:36:20 23:39:28 26° 264° (W) 23:42:39 437.505
POLYITAN 1 07 Feb 23:36:53 23:41:00 52° 100° (E) 23:45:06 437.675
QB50P2 07 Feb 23:37:39 23:41:48 55° 100° (E) 23:45:55 145.880/145.840
Cosmos 2499 07 Feb 23:38:23 23:43:35 18° 284° (WNW) 23:48:36 435.465 / 435.565
ANTELSAT 07 Feb 23:40:47 23:44:43 35° 290° (WNW) 23:48:42 437.575/2403.000
UKube-1 07 Feb 23:42:20 23:46:19 36° 262° (W) 23:50:21 .
CUBEBUG 1 07 Feb 23:42:40 23:46:52 41° 262° (W) 23:51:06 437.445
TIGRISAT 07 Feb 23:48:37 23:52:25 31° 291° (WNW) 23:56:15 435.000
DX 1 07 Feb 23:50:32 23:54:11 26° 264° (W) 23:57:53 434.975-435.025
BUGSAT 1 07 Feb 23:53:24 23:57:11 36° 98° (E) 00:00:54 437.445
SPROUT 07 Feb 23:55:15 23:59:34 84° 257° (WSW) 00:03:53 437.525
POPSAT HIP 1 08 Feb 00:08:02 00:12:14 71° 285° (WNW) 00:16:24 437.405
TISAT 1 08 Feb 00:13:27 00:17:37 59° 73° (ENE) 00:21:47 437.305
NANOSAT C BR1 08 Feb 00:14:17 00:18:27 61° 285° (WNW) 00:22:34 145.865
DUCHIFAT 1 08 Feb 00:16:48 00:20:56 60° 286° (WNW) 00:25:02 145.980
RS-15 08 Feb 00:20:47 00:25:50 14° 267° (W) 00:30:56 29.354- 29.394
QB50P1 08 Feb 00:21:02 00:25:06 50° 288° (WNW) 00:29:09 145.935-145.965
ISS 08 Feb 00:32:34 00:34:29 15° 228° (SW) 00:36:24 145.825
UNISAT 6 08 Feb 00:34:25 00:35:49 11° 299° (WNW) 00:37:13 437.425
SWISSCUBE 08 Feb 00:43:17 00:47:17 27° 66° (ENE) 00:51:18 437.505
CUSAT 1 08 Feb 00:50:08 00:55:34 21° 81° (E) 01:01:05 437.405
DANDE 08 Feb 01:05:24 01:09:35 16° 76° (ENE) 01:13:58 436.750
POLYITAN 1 08 Feb 01:14:00 01:16:24 15° 297° (WNW) 01:18:49 437.675
QB50P2 08 Feb 01:14:53 01:17:11 14° 297° (WNW) 01:19:28 145.880/145.840
ITUPSAT 1 08 Feb 01:18:07 01:22:44 52° 71° (ENE) 01:27:24 437.325
Cosmos 2491 08 Feb 01:26:08 01:33:21 27° 66° (ENE) 01:40:31 435.465 / 435.565
BEESAT 3 08 Feb 01:27:16 01:29:53 17° 41° (NE) 01:32:29 437.485
Oscar 19 08 Feb 01:27:52 01:32:43 41° 98° (E) 01:37:32 437.125/150
BEESAT 08 Feb 01:28:01 01:32:44 67° 74° (ENE) 01:37:29 436.000
PHONESAT 2.4 08 Feb 01:28:46 01:30:15 13° 150° (SSE) 01:31:45 2401.200-2431.200
BUGSAT 1 08 Feb 01:29:28 01:32:19 19° 295° (WNW) 01:35:08 437.445
JAS-2 08 Feb 01:34:12 01:39:20 32° 94° (E) 01:44:04 435.910
Gurwin Techsat 1B 08 Feb 01:41:00 01:45:01 21° 93° (E) 01:49:00 435.225
BEESAT 2 08 Feb 01:47:16 01:50:00 17° 41° (NE) 01:52:43 435.950
TISAT 1 08 Feb 01:51:49 01:53:40 13° 270° (W) 01:55:30 437.305
STARS 08 Feb 02:00:03 02:01:35 12° 60° (ENE) 02:03:07 437.465
KKS-1 08 Feb 02:08:35 02:12:13 25° 67° (ENE) 02:15:53 437.445
YUBILEINY 08 Feb 02:19:54 02:26:09 22° 78° (ENE) 02:32:26 435.215
SWISSCUBE 08 Feb 02:20:39 02:24:58 34° 263° (W) 02:29:19 437.505
CUSAT 1 08 Feb 02:28:58 02:36:51 90° 279° (W) 02:45:01 437.405
AO-7 08 Feb 02:31:05 02:34:23 13° 86° (E) 02:37:39 29.400- 29.500
ITAMSAT 1 08 Feb 02:31:46 02:36:28 32° 96° (E) 02:41:07 435.822/435.867
DANDE 08 Feb 02:43:28 02:50:59 73° 96° (E) 02:59:28 436.750
ITUPSAT 1 08 Feb 02:57:45 03:00:54 17° 268° (W) 03:04:04 437.325
PHONESAT 2.4 08 Feb 03:03:56 03:07:00 37° 166° (SSE) 03:10:05 2401.200-2431.200
BEESAT 3 08 Feb 03:04:07 03:08:02 61° 239° (WSW) 03:11:55 437.485
Oscar 19 08 Feb 03:07:38 03:11:50 26° 295° (WNW) 03:16:00 437.125/150
BEESAT 08 Feb 03:08:41 03:11:00 13° 270° (W) 03:13:20 436.000
JAS-2 08 Feb 03:19:15 03:24:27 34° 295° (WNW) 03:29:13 435.910
Gurwin Techsat 1B 08 Feb 03:20:05 03:25:15 51° 290° (WNW) 03:30:22 435.225
MOZHAYETS 4 08 Feb 03:21:33 03:25:58 53° 72° (ENE) 03:30:26
Cosmos 2491 08 Feb 03:22:16 03:30:56 69° 267° (W) 03:39:36 435.465 / 435.565
BEESAT 2 08 Feb 03:24:19 03:28:16 58° 240° (WSW) 03:32:09 435.950
AIST 2 08 Feb 03:24:49 03:27:52 20° 42° (NE) 03:30:55 435.215
Cosmos 2504 08 Feb 03:27:32 03:29:21 11° 70° (ENE) 03:31:10 435.465 / 435.565
STARS 08 Feb 03:32:55 03:37:20 78° 258° (WSW) 03:41:45 437.465
KKS-1 08 Feb 03:44:39 03:48:40 33° 263° (W) 03:52:42 437.445
CUBESAT XI-V 08 Feb 03:58:19 04:00:58 15° 62° (ENE) 04:03:39 437.345
ITAMSAT 1 08 Feb 04:11:14 04:15:54 34° 293° (WNW) 04:20:33 435.822/435.867
YUBILEINY 08 Feb 04:13:06 04:21:53 80° 279° (W) 04:30:47 435.215
CUSAT 1 08 Feb 04:14:13 04:20:11 22° 298° (WNW) 04:26:10 437.405
AO-7 08 Feb 04:20:16 04:28:37 70° 105° (ESE) 04:36:52 29.400- 29.500
M-CUBED/EXP-1 PRIME 08 Feb 04:27:34 04:30:45 39° 105° (ESE) 04:34:03 437.505
DANDE 08 Feb 04:28:15 04:34:47 28° 297° (WNW) 04:41:51 436.750
AUBIESAT-1 08 Feb 04:39:15 04:42:33 45° 106° (ESE) 04:45:59 437.475
PHONESAT 2.4 08 Feb 04:40:51 04:44:04 55° 182° (S) 04:47:17 2401.200-2431.200
SO-50 08 Feb 04:52:40 04:56:25 22° 111° (ESE) 05:00:14 436.795
MOZHAYETS 4 08 Feb 05:00:41 05:03:28 16° 269° (W) 05:06:16
HORYU 2 08 Feb 05:01:17 05:05:45 86° 105° (ESE) 05:10:13 437.375
AIST 2 08 Feb 05:02:38 05:06:41 53° 241° (WSW) 05:10:39 435.215
Cosmos 2504 08 Feb 05:12:23 05:20:41 60° 91° (E) 05:29:22 435.465 / 435.565
Cosmos 2491 08 Feb 05:22:41 05:26:01 13° 287° (WNW) 05:29:23 435.465 / 435.565
STRAND 1 08 Feb 05:24:09 05:27:27 18° 60° (ENE) 05:30:45 437.568
CUBESAT XI-V 08 Feb 05:33:10 05:37:49 65° 259° (WSW) 05:42:32 437.345
CUTE-I 08 Feb 05:34:21 05:37:35 16° 90° (E) 05:40:49 437.470
Cubesat XI-IV 08 Feb 05:46:48 05:50:49 21° 93° (E) 05:54:48 437.490
M-CUBED/EXP-1 PRIME 08 Feb 06:03:30 06:05:09 13° 300° (WNW) 06:06:50 437.505
LilacSat-2 08 Feb 06:04:06 06:07:02 21° 94° (E) 06:09:58 437.200
AO-7 08 Feb 06:13:52 06:20:46 30° 305° (NW) 06:27:38 29.400- 29.500
YUBILEINY 08 Feb 06:14:48 06:20:17 18° 302° (WNW) 06:25:50 435.215
AUBIESAT-1 08 Feb 06:15:26 06:16:49 12° 301° (WNW) 06:18:14 437.475
PHONESAT 2.4 08 Feb 06:18:10 06:21:05 30° 199° (SSW) 06:23:59 2401.200-2431.200
PRISM 08 Feb 06:28:25 06:31:20 19° 65° (ENE) 06:34:17 437.425
SO-50 08 Feb 06:31:48 06:36:36 52° 309° (NW) 06:41:27 436.795
HORYU 2 08 Feb 06:40:30 06:41:39 11° 301° (WNW) 06:42:47 437.375
GOMX 1 08 Feb 06:43:02 06:45:57 17° 90° (E) 06:48:45 467.674
STRAND 1 08 Feb 07:01:01 07:06:05 65° 258° (WSW) 07:11:13 437.568
BRITE-PL 08 Feb 07:03:37 07:08:26 59° 99° (E) 07:12:50 437.365/2234.400
Cosmos 2504 08 Feb 07:07:01 07:14:34 33° 292° (WNW) 07:22:24 435.465 / 435.565
CUTE-I 08 Feb 07:12:46 07:18:08 69° 288° (WNW) 07:23:28 437.470
Cubesat XI-IV 08 Feb 07:25:57 07:31:11 53° 290° (WNW) 07:36:24 437.490
LilacSat-2 08 Feb 07:38:09 07:41:22 27° 290° (WNW) 07:44:34 437.200
O/OREOS (USA 219) 08 Feb 07:42:08 07:45:11 18° 100° (E) 07:48:15 437.305
CANX-2 08 Feb 07:42:47 07:45:40 17° 92° (E) 07:48:32 2200.000
CINEMA 3 08 Feb 07:44:36 07:46:17 12° 90° (E) 07:47:59 145.822/145.860
GONETS M04 08 Feb 07:45:58 07:51:05 17° 76° (ENE) 07:56:13
PRISM 08 Feb 08:02:29 08:06:23 40° 262° (W) 08:10:21 437.425
DOVE 4 08 Feb 08:10:58 08:15:17 75° 101° (E) 08:19:26 437.250
SO-50 08 Feb 08:16:14 08:18:15 12° 330° (NNW) 08:20:17 436.795
GOMX 1 08 Feb 08:20:04 08:24:23 44° 289° (WNW) 08:28:26 467.674
Cosmos 2499 08 Feb 08:31:35 08:35:54 15° 74° (ENE) 08:40:15 435.465 / 435.565
COMPASS 1 08 Feb 08:32:22 08:36:05 29° 96° (E) 08:39:47 437.405
CUTE 1.7 + AOD 2 08 Feb 08:32:47 08:36:59 53° 100° (E) 08:41:11 437.475
HO-68 08 Feb 08:39:26 08:46:35 62° 103° (ESE) 08:53:41 435.675
SEEDS 08 Feb 08:42:40 08:46:50 52° 99° (E) 08:50:59 437.485
BRITE-PL 08 Feb 08:43:22 08:46:21 16° 299° (WNW) 08:49:11 437.365/2234.400
CUTE-I 08 Feb 08:56:17 08:57:12 10° 305° (NW) 08:58:06 437.470
AAUSAT CUBESAT 2 08 Feb 09:02:39 09:06:47 52° 100° (E) 09:10:53 437.432
ANTELSAT 08 Feb 09:04:40 09:07:58 22° 66° (ENE) 09:11:15 437.575/2403.000
ZACube-1 08 Feb 09:07:25 09:10:26 19° 93° (E) 09:13:28 437.345
TIGRISAT 08 Feb 09:12:00 09:15:30 24° 67° (ENE) 09:18:58 435.000
FUNcube-1 08 Feb 09:17:14 09:20:36 23° 94° (E) 09:24:00 145.935
CANX-2 08 Feb 09:17:40 09:21:44 43° 288° (WNW) 09:25:48 2200.000
CINEMA 3 08 Feb 09:19:46 09:23:51 56° 286° (WNW) 09:27:54 145.822/145.860
O/OREOS (USA 219) 08 Feb 09:19:55 09:24:13 45° 298° (WNW) 09:28:33 437.305
NANOSAT C BR1 08 Feb 09:34:48 09:36:02 11° 61° (ENE) 09:37:17 145.865
DUCHIFAT 1 08 Feb 09:37:03 09:38:20 11° 61° (ENE) 09:39:36 145.980
GONETS M04 08 Feb 09:37:50 09:46:31 86° 96° (E) 09:55:17
CUBEBUG 2 08 Feb 09:39:28 09:43:40 85° 103° (ESE) 09:47:54 437.445
QB50P1 08 Feb 09:40:47 09:42:52 14° 62° (ENE) 09:44:57 145.935-145.965
HUMSAT D 08 Feb 09:43:26 09:45:35 14° 91° (E) 09:47:45 437.325/437.525
UWE-3 08 Feb 09:44:18 09:48:29 69° 102° (ESE) 09:52:43 435.000/436.395/437.385
DOVE 4 08 Feb 09:51:16 09:52:20 11° 300° (WNW) 09:53:23 437.250
Oscar 11 08 Feb 09:52:33 09:56:55 77° 102° (ESE) 10:01:16 145.826/435.025
AO-85 08 Feb 09:53:31 09:56:41 16° 106° (ESE) 09:59:53 145.980
UNISAT 6 08 Feb 09:54:57 09:59:17 74° 75° (ENE) 10:03:35 437.425
AIST 1 08 Feb 09:59:37 10:01:41 13° 84° (E) 10:03:46
COMPASS 1 08 Feb 10:08:05 10:11:33 25° 292° (WNW) 10:15:00 437.405
CUTE 1.7 + AOD 2 08 Feb 10:09:55 10:12:25 15° 296° (WNW) 10:14:55 437.475
Cosmos 2499 08 Feb 10:18:46 10:27:23 73° 94° (E) 10:36:15 435.465 / 435.565
SEEDS 08 Feb 10:19:37 10:22:08 16° 296° (WNW) 10:24:40 437.485
PCSat 08 Feb 10:20:30 10:23:52 17° 105° (ESE) 10:27:15 145.827
RS-15 08 Feb 10:20:46 10:28:02 20° 98° (E) 10:35:28 29.354- 29.394
HO-68 08 Feb 10:27:53 10:33:49 29° 301° (WNW) 10:39:44 435.675
POLYITAN 1 08 Feb 10:30:18 10:34:20 44° 72° (ENE) 10:38:22 437.675
QB50P2 08 Feb 10:31:01 10:35:04 46° 72° (ENE) 10:39:08 145.880/145.840
DELFI C3 08 Feb 10:31:35 10:35:37 68° 285° (WNW) 10:39:39 145.870
AAUSAT CUBESAT 2 08 Feb 10:39:26 10:41:52 15° 296° (WNW) 10:44:17 437.432
ANTELSAT 08 Feb 10:40:31 10:44:30 35° 263° (W) 10:48:27 437.575/2403.000
ZACube-1 08 Feb 10:42:59 10:46:52 38° 289° (WNW) 10:50:48 437.345
BUGSAT 1 08 Feb 10:43:58 10:47:40 30° 69° (ENE) 10:51:21 437.445
TIGRISAT 08 Feb 10:48:14 10:52:05 31° 263° (W) 10:55:54 435.000
VELOX 1 08 Feb 10:50:13 10:52:40 14° 91° (E) 10:55:06 145.980
FUNcube-1 08 Feb 10:53:11 10:56:54 31° 290° (WNW) 11:00:38 145.935
POPSAT HIP 1 08 Feb 11:01:03 11:05:18 86° 254° (WSW) 11:09:34 437.405
AISAT 08 Feb 11:05:44 11:09:12 22° 94° (E) 11:12:38 437.250
50 SAT 08 Feb 11:06:43 11:09:54 25° 96° (E) 11:13:03 437.505
NANOSAT C BR1 08 Feb 11:06:57 11:11:11 76° 258° (WSW) 11:15:25 145.865
DUCHIFAT 1 08 Feb 11:09:14 11:13:27 75° 259° (W) 11:17:41 145.980
QB50P1 08 Feb 11:13:58 11:18:10 61° 259° (W) 11:22:22 145.935-145.965
HUMSAT D 08 Feb 11:17:30 11:21:32 51° 287° (WNW) 11:25:36 437.325/437.525
ESTCUBE 1 08 Feb 11:19:45 11:23:55 34° 97° (E) 11:28:03 437.505/2401.250
UWE-3 08 Feb 11:22:56 11:24:25 12° 298° (WNW) 11:25:55 435.000/436.395/437.385
CUSAT 1 08 Feb 11:27:36 11:29:14 11° 51° (NE) 11:30:46 437.405
UKube-1 08 Feb 11:28:25 11:32:21 33° 97° (E) 11:36:15 .
CUBEBUG 1 08 Feb 11:30:26 11:34:23 32° 96° (E) 11:38:17 437.445
Oscar 11 08 Feb 11:31:00 11:32:25 11° 299° (WNW) 11:33:50 145.826/435.025
AO-85 08 Feb 11:31:09 11:36:31 81° 304° (NW) 11:42:04 145.980
AIST 1 08 Feb 11:34:27 11:38:46 56° 281° (W) 11:43:07
DX 1 08 Feb 11:36:58 11:41:13 48° 100° (E) 11:45:25 434.975-435.025
GONETS M04 08 Feb 11:38:16 11:44:33 21° 298° (WNW) 11:50:53
SPROUT 08 Feb 11:41:50 11:44:25 16° 92° (E) 11:46:58 437.525
DANDE 08 Feb 11:44:39 11:47:20 12° 50° (NE) 11:49:49 436.750
JAS-2 08 Feb 11:46:45 11:52:21 23° 60° (ENE) 11:57:37 435.910
PCSat 08 Feb 12:01:15 12:06:39 71° 302° (WNW) 12:12:06 145.827
POLYITAN 1 08 Feb 12:07:39 12:10:22 17° 268° (W) 12:13:06 437.675
QB50P2 08 Feb 12:08:31 12:11:08 16° 268° (W) 12:13:45 145.880/145.840
Cosmos 2499 08 Feb 12:14:11 12:21:21 27° 295° (WNW) 12:28:40 435.465 / 435.565
BUGSAT 1 08 Feb 12:19:39 12:23:03 24° 265° (W) 12:26:28 437.445
VELOX 1 08 Feb 12:25:09 12:29:30 55° 287° (WNW) 12:33:47 145.980
RS-15 08 Feb 12:27:18 12:38:24 82° 121° (ESE) 12:50:11 29.354- 29.394
YUBILEINY 08 Feb 12:29:20 12:31:45 11° 52° (NE) 12:34:11 435.215
50 SAT 08 Feb 12:40:46 12:43:50 24° 292° (WNW) 12:46:55 437.505
AISAT 08 Feb 12:41:45 12:45:47 35° 291° (WNW) 12:49:46 437.250
Oscar 19 08 Feb 12:45:23 12:50:31 66° 73° (ENE) 12:55:40 437.125/150
ESTCUBE 1 08 Feb 12:56:53 13:00:34 25° 294° (WNW) 13:04:14 437.505/2401.250
Gurwin Techsat 1B 08 Feb 13:02:42 13:07:32 37° 68° (ENE) 13:12:23 435.225
UKube-1 08 Feb 13:04:48 13:08:15 24° 294° (WNW) 13:11:41 .
CUSAT 1 08 Feb 13:06:58 13:13:16 72° 77° (ENE) 13:17:57 437.405
CUBEBUG 1 08 Feb 13:07:01 13:10:32 24° 294° (WNW) 13:14:02 437.445
AO-85 08 Feb 13:14:07 13:17:56 19° 325° (NW) 13:21:47 145.980
DX 1 08 Feb 13:14:12 13:17:01 17° 297° (WNW) 13:19:52 434.975-435.025
SPROUT 08 Feb 13:16:33 13:20:39 47° 288° (WNW) 13:24:44 437.525
ITUPSAT 1 08 Feb 13:19:37 13:21:40 13° 89° (E) 13:23:44 437.325
SO-50 08 Feb 13:22:26 13:26:40 28° 44° (NE) 13:30:46 436.795
DANDE 08 Feb 13:24:58 13:32:21 61° 75° (ENE) 13:37:59 436.750
BEESAT 08 Feb 13:28:31 13:31:27 16° 91° (E) 13:34:23 436.000
JAS-2 08 Feb 13:28:59 13:36:45 80° 256° (WSW) 13:43:53 435.910
AO-7 08 Feb 13:30:05 13:36:26 25° 52° (NE) 13:42:46 29.400- 29.500
TISAT 1 08 Feb 13:32:06 13:36:18 86° 279° (W) 13:40:27 437.305
PCSat 08 Feb 13:48:00 13:51:03 15° 323° (NW) 13:54:08 145.827
ITAMSAT 1 08 Feb 13:50:29 13:55:30 54° 71° (ENE) 14:00:35 435.822/435.867
SWISSCUBE 08 Feb 14:19:18 14:24:03 56° 101° (E) 14:28:46 437.505
YUBILEINY 08 Feb 14:22:17 14:30:58 55° 76° (ENE) 14:39:33 435.215
Oscar 19 08 Feb 14:27:12 14:30:18 16° 270° (W) 14:33:24 437.125/150
Cosmos 2491 08 Feb 14:29:24 14:36:32 30° 82° (E) 14:43:39 435.465 / 435.565
RS-15 08 Feb 14:41:53 14:52:14 38° 327° (NNW) 15:03:09 29.354- 29.394
Gurwin Techsat 1B 08 Feb 14:42:55 14:47:31 30° 265° (W) 14:52:09 435.225
CUSAT 1 08 Feb 14:51:19 14:54:17 14° 283° (WNW) 14:56:55 437.405
ITUPSAT 1 08 Feb 14:55:13 15:00:03 73° 285° (WNW) 15:04:50 437.325
SO-50 08 Feb 15:02:46 15:07:19 43° 243° (WSW) 15:11:42 436.795
BEESAT 08 Feb 15:04:53 15:09:36 57° 288° (WNW) 15:14:18 436.000
Cosmos 2504 08 Feb 15:05:02 15:11:46 24° 63° (ENE) 15:18:10 435.465 / 435.565
DANDE 08 Feb 15:09:06 15:14:25 23° 280° (W) 15:18:53 436.750
M-CUBED/EXP-1 PRIME 08 Feb 15:15:35 15:19:15 68° 70° (ENE) 15:22:42 437.505
MOZHAYETS 4 08 Feb 15:17:42 15:19:25 12° 89° (E) 15:21:09
JAS-2 08 Feb 15:18:27 15:22:33 15° 273° (W) 15:26:31 435.910
AO-7 08 Feb 15:19:52 15:28:16 85° 252° (WSW) 15:36:42 29.400- 29.500
STARS 08 Feb 15:22:31 15:25:27 17° 93° (E) 15:28:22 437.465
AUBIESAT-1 08 Feb 15:26:51 15:30:31 76° 71° (ENE) 15:34:00 437.475
ITAMSAT 1 08 Feb 15:31:37 15:35:19 20° 268° (W) 15:39:02 435.822/435.867
KKS-1 08 Feb 15:34:13 15:38:27 42° 99° (E) 15:42:38 437.445
ISS 08 Feb 15:37:10 15:38:35 12° 131° (SE) 15:40:00 145.825
SWISSCUBE 08 Feb 15:58:12 16:01:24 18° 298° (WNW) 16:04:37 437.505
HORYU 2 08 Feb 15:59:59 16:04:25 88° 78° (ENE) 16:08:51 437.375
YUBILEINY 08 Feb 16:19:43 16:27:20 34° 276° (W) 16:34:55 435.215
Cosmos 2491 08 Feb 16:24:08 16:32:44 62° 282° (WNW) 16:41:23 435.465 / 435.565
BRITE-PL 08 Feb 16:39:36 16:41:48 12° 58° (ENE) 16:43:59 437.365/2234.400
LilacSat-2 08 Feb 16:48:18 16:50:12 13° 65° (ENE) 16:52:07 437.200
MOZHAYETS 4 08 Feb 16:52:27 16:57:06 73° 285° (WNW) 17:01:44
CUTE-I 08 Feb 16:56:37 17:01:08 29° 65° (ENE) 17:05:42 437.470
BEESAT 3 08 Feb 16:57:13 16:59:52 17° 111° (ESE) 17:02:31 437.485
Cosmos 2504 08 Feb 16:57:30 17:06:12 79° 266° (W) 17:14:19 435.465 / 435.565
STARS 08 Feb 16:57:53 17:02:02 44° 289° (WNW) 17:06:11 437.465
RS-15 08 Feb 17:00:08 17:09:22 25° 2° (N) 17:18:52 29.354- 29.394
Cubesat XI-IV 08 Feb 17:09:26 17:14:17 37° 67° (ENE) 17:19:11 437.490
ISS 08 Feb 17:11:21 17:14:36 83° 329° (NNW) 17:17:52 145.825
KKS-1 08 Feb 17:11:31 17:14:44 20° 296° (WNW) 17:17:55 437.445
AO-7 08 Feb 17:16:58 17:22:09 18° 271° (W) 17:27:22 29.400- 29.500
BEESAT 2 08 Feb 17:18:24 17:21:16 19° 112° (ESE) 17:24:08 435.950
HO-68 08 Feb 17:28:07 17:29:29 11° 45° (NE) 17:30:52 435.675
CUBESAT XI-V 08 Feb 17:29:11 17:33:18 29° 95° (E) 17:37:23 437.345
DOVE 4 08 Feb 17:42:53 17:44:25 11° 60° (ENE) 17:45:56 437.250
O/OREOS (USA 219) 08 Feb 17:49:34 17:53:56 42° 62° (ENE) 17:58:18 437.305
GOMX 1 08 Feb 17:50:47 17:55:11 26° 67° (ENE) 17:59:28 467.674
BRITE-PL 08 Feb 18:13:42 18:19:23 75° 75° (ENE) 18:24:57 437.365/2234.400
LilacSat-2 08 Feb 18:20:26 18:24:08 47° 261° (W) 18:27:51 437.200
AO-85 08 Feb 18:22:53 18:26:55 21° 38° (NE) 18:30:43 145.980
Cosmos 2491 08 Feb 18:28:08 18:31:41 13° 306° (NW) 18:35:15 435.465 / 435.565
BEESAT 3 08 Feb 18:33:27 18:37:18 45° 308° (NW) 18:41:09 437.485
CUTE-I 08 Feb 18:36:07 18:41:02 38° 262° (W) 18:46:01 437.470
CANX-2 08 Feb 18:37:18 18:39:39 15° 63° (ENE) 18:42:00 2200.000
CINEMA 3 08 Feb 18:46:53 18:49:36 16° 64° (ENE) 18:52:15 145.822/145.860
ISS 08 Feb 18:48:48 18:51:26 22° 346° (NNW) 18:54:03 145.825
Cubesat XI-IV 08 Feb 18:49:49 18:54:25 29° 265° (W) 18:59:03 437.490
Cosmos 2504 08 Feb 18:53:31 18:57:59 15° 286° (WNW) 19:02:20 435.465 / 435.565
BEESAT 2 08 Feb 18:55:02 18:58:53 42° 309° (NW) 19:02:44 435.950
AIST 2 08 Feb 19:01:24 19:04:48 25° 113° (ESE) 19:08:13 435.215
PCSat 08 Feb 19:05:38 19:09:44 21° 43° (NE) 19:13:48 145.827
CUBESAT XI-V 08 Feb 19:06:32 19:10:38 30° 292° (WNW) 19:14:43 437.345
HO-68 08 Feb 19:08:42 19:15:32 50° 66° (ENE) 19:22:26 435.675
STRAND 1 08 Feb 19:10:41 19:15:32 40° 98° (E) 19:20:21 437.568
RS-15 08 Feb 19:15:09 19:26:21 41° 35° (NE) 19:37:46 29.354- 29.394
DOVE 4 08 Feb 19:16:16 19:21:25 84° 77° (ENE) 19:26:19 437.250
COMPASS 1 08 Feb 19:24:28 19:27:43 23° 67° (ENE) 19:31:00 437.405
CUTE 1.7 + AOD 2 08 Feb 19:26:17 19:30:14 41° 72° (ENE) 19:34:13 437.475
GOMX 1 08 Feb 19:27:52 19:33:02 44° 262° (W) 19:38:02 467.674
O/OREOS (USA 219) 08 Feb 19:29:40 19:33:02 20° 259° (W) 19:36:25 437.305
SEEDS 08 Feb 19:35:17 19:39:10 39° 71° (ENE) 19:43:05 437.485
PRISM 08 Feb 19:43:32 19:47:00 25° 95° (E) 19:50:26 437.425
GONETS M04 08 Feb 19:47:04 19:55:27 46° 73° (ENE) 20:03:48
AAUSAT CUBESAT 2 08 Feb 19:53:50 19:57:39 38° 71° (ENE) 20:01:32 437.432
BRITE-PL 08 Feb 19:54:53 19:58:20 16° 271° (W) 20:01:45 437.365/2234.400
AO-85 08 Feb 20:02:52 20:08:03 73° 240° (WSW) 20:12:45 145.980
ZACube-1 08 Feb 20:04:44 20:07:31 17° 65° (ENE) 20:10:18 437.345
Cosmos 2499 08 Feb 20:10:18 20:17:23 28° 65° (ENE) 20:24:02 435.465 / 435.565
CANX-2 08 Feb 20:10:57 20:15:04 54° 260° (W) 20:19:13 2200.000
FUNcube-1 08 Feb 20:14:09 20:17:16 21° 67° (ENE) 20:20:23 145.935
CINEMA 3 08 Feb 20:21:44 20:26:20 58° 259° (W) 20:30:46 145.822/145.860
ISS 08 Feb 20:26:20 20:28:42 18° 6° (N) 20:31:02 145.825
HUMSAT D 08 Feb 20:37:02 20:38:24 11° 62° (ENE) 20:39:46 437.325/437.525
CUBEBUG 2 08 Feb 20:38:13 20:42:34 78° 76° (ENE) 20:46:49 437.445
AIST 2 08 Feb 20:39:18 20:43:09 35° 311° (NW) 20:47:01 435.215
UWE-3 08 Feb 20:42:02 20:46:16 61° 74° (ENE) 20:50:24 435.000/436.395/437.385
Oscar 11 08 Feb 20:47:53 20:52:08 65° 74° (ENE) 20:56:25 145.826/435.025
PCSat 08 Feb 20:48:16 20:53:43 74° 243° (WSW) 20:59:07 145.827
STRAND 1 08 Feb 20:50:13 20:54:31 27° 295° (WNW) 20:58:48 437.568
HO-68 08 Feb 20:57:08 21:03:27 33° 264° (W) 21:09:50 435.675
DOVE 4 08 Feb 20:57:53 20:59:36 12° 271° (W) 21:01:20 437.250
COMPASS 1 08 Feb 20:59:27 21:03:09 31° 264° (W) 21:06:53 437.405
CUTE 1.7 + AOD 2 08 Feb 21:03:29 21:06:17 17° 268° (W) 21:09:06 437.475
SEEDS 08 Feb 21:12:11 21:15:03 18° 268° (W) 21:17:57 437.485
DELFI C3 08 Feb 21:18:25 21:22:23 77° 75° (ENE) 21:26:23 145.870
PRISM 08 Feb 21:18:41 21:22:19 29° 292° (WNW) 21:25:55 437.425
RS-15 08 Feb 21:27:54 21:40:03 78° 241° (WSW) 21:52:21 29.354- 29.394
AAUSAT CUBESAT 2 08 Feb 21:30:28 21:33:20 18° 268° (W) 21:36:13 437.432
ZACube-1 08 Feb 21:39:29 21:43:31 43° 261° (W) 21:47:30 437.345
AIST 1 08 Feb 21:40:40 21:44:44 37° 76° (ENE) 21:48:45
GONETS M04 08 Feb 21:44:07 21:52:09 42° 274° (W) 22:00:12
UNISAT 6 08 Feb 21:47:06 21:49:23 14° 91° (E) 21:51:41 437.425
VELOX 1 08 Feb 21:48:40 21:51:24 16° 63° (ENE) 21:54:07 145.980
50 SAT 08 Feb 21:48:58 21:51:07 15° 65° (ENE) 21:53:17 437.505
FUNcube-1 08 Feb 21:49:28 21:53:20 35° 263° (W) 21:57:10 145.935
ISS 08 Feb 22:02:39 22:05:45 42° 26° (NNE) 22:08:52 145.825
Cosmos 2499 08 Feb 22:02:51 22:11:13 65° 268° (W) 22:18:56 435.465 / 435.565
AISAT 08 Feb 22:04:07 22:07:40 24° 66° (ENE) 22:11:13 437.250
HUMSAT D 08 Feb 22:09:27 22:13:30 67° 258° (WSW) 22:17:35 437.325/437.525
ESTCUBE 1 08 Feb 22:20:04 22:24:11 36° 70° (ENE) 22:28:20 437.505/2401.250
UWE-3 08 Feb 22:21:33 22:23:07 12° 270° (W) 22:24:40 435.000/436.395/437.385
UKube-1 08 Feb 22:23:50 22:27:41 32° 69° (ENE) 22:31:34 .
CUBEBUG 1 08 Feb 22:27:11 22:31:06 31° 69° (ENE) 22:35:01 437.445
Oscar 11 08 Feb 22:27:14 22:28:42 11° 271° (W) 22:30:11 145.826/435.025
